Time,TemperatureF,DewpointF,PressureIn,WindDirection,WindDirectionDegrees,WindSpeedMPH,WindSpeedGustMPH,Humidity,HourlyPrecipIn,Conditions,Clouds,dailyrainin,SoftwareType,DateUTC
2013-06-21 00:01:00,76.5,68.8,29.96,South,180,4.9,9.2,77,0.00,,,0.00,WUHU216HW,2013-06-21 05:01:00,
2013-06-21 00:06:00,76.3,68.6,29.96,South,180,10.5,10.5,77,0.00,,,0.00,WUHU216HW,2013-06-21 05:06:00,
2013-06-21 00:11:00,76.3,68.6,29.96,South,180,6.9,10.5,77,0.00,,,0.00,WUHU216HW,2013-06-21 05:11:00,
2013-06-21 00:16:00,76.3,68.6,29.96,South,180,9.2,10.5,77,0.00,,,0.00,WUHU216HW,2013-06-21 05:16:00,
2013-06-21 00:21:00,76.3,68.6,29.96,SSE,158,6.9,9.2,77,0.00,,,0.00,WUHU216HW,2013-06-21 05:21:00,
2013-06-21 00:26:00,76.1,68.4,29.96,South,180,5.6,9.2,77,0.00,,,0.00,WUHU216HW,2013-06-21 05:26:00,
2013-06-21 00:31:00,76.0,68.2,29.97,South,180,4.7,6.3,77,0.00,,,0.00,WUHU216HW,2013-06-21 05:31:00,
2013-06-21 00:36:00,76.0,68.7,29.96,SSE,158,6.7,6.7,78,0.00,,,0.00,WUHU216HW,2013-06-21 05:36:00,
2013-06-21 00:41:00,76.0,68.2,29.97,SSE,158,7.6,7.6,77,0.00,,,0.00,WUHU216HW,2013-06-21 05:41:00,
2013-06-21 00:46:00,76.0,68.2,29.96,SSE,158,5.4,7.6,77,0.00,,,0.00,WUHU216HW,2013-06-21 05:46:00,
2013-06-21 00:51:00,76.0,68.2,29.97,South,180,6.3,6.3,77,0.00,,,0.00,WUHU216HW,2013-06-21 05:51:00,
2013-06-21 00:56:00,75.8,68.0,29.97,South,180,5.4,6.3,77,0.00,,,0.00,WUHU216HW,2013-06-21 05:56:00,
2013-06-21 01:01:00,76.0,68.7,29.96,SSE,158,6.5,6.5,78,0.00,,,0.00,WUHU216HW,2013-06-21 06:01:00,
2013-06-21 01:06:00,76.0,68.2,29.96,South,180,6.3,6.5,77,0.00,,,0.00,WUHU216HW,2013-06-21 06:06:00,
2013-06-21 01:11:00,76.0,68.2,29.96,South,180,8.3,8.3,77,0.00,,,0.00,WUHU216HW,2013-06-21 06:11:00,
2013-06-21 01:16:00,76.0,68.2,29.96,South,180,6.5,8.3,77,0.00,,,0.00,WUHU216HW,2013-06-21 06:16:00,
2013-06-21 01:21:00,76.0,68.2,29.96,South,180,6.3,8.3,77,0.00,,,0.00,WUHU216HW,2013-06-21 06:21:00,
2013-06-21 01:26:00,76.0,68.2,29.96,South,180,6.9,6.9,77,0.00,,,0.00,WUHU216HW,2013-06-21 06:26:00,
2013-06-21 01:31:00,76.0,68.2,29.96,South,180,7.4,7.4,77,0.00,,,0.00,WUHU216HW,2013-06-21 06:31:00,
2013-06-21 01:36:00,76.0,68.2,29.95,South,180,7.2,7.4,77,0.00,,,0.00,WUHU216HW,2013-06-21 06:36:00,
2013-06-21 01:41:00,76.0,68.2,29.95,South,180,7.4,7.4,77,0.00,,,0.00,WUHU216HW,2013-06-21 06:41:00,
2013-06-21 01:46:00,76.0,68.2,29.95,SSE,158,6.5,7.4,77,0.00,,,0.00,WUHU216HW,2013-06-21 06:46:00,
2013-06-21 01:51:00,76.0,68.2,29.94,SSW,203,6.9,7.6,77,0.00,,,0.00,WUHU216HW,2013-06-21 06:51:00,
2013-06-21 01:56:00,76.0,68.2,29.94,SSE,158,7.4,7.6,77,0.00,,,0.00,WUHU216HW,2013-06-21 06:56:00,
2013-06-21 02:01:00,76.0,68.2,29.94,SSW,203,7.2,8.7,77,0.00,,,0.00,WUHU216HW,2013-06-21 07:01:00,
2013-06-21 02:06:00,76.0,68.2,29.94,SSE,158,10.5,10.5,77,0.00,,,0.00,WUHU216HW,2013-06-21 07:06:00,
2013-06-21 02:11:00,76.0,68.2,29.94,South,180,7.2,10.5,77,0.00,,,0.00,WUHU216HW,2013-06-21 07:11:00,
2013-06-21 02:16:00,75.8,68.0,29.94,SSW,203,6.3,10.5,77,0.00,,,0.00,WUHU216HW,2013-06-21 07:16:00,
2013-06-21 02:21:00,75.8,68.0,29.94,South,180,8.9,8.9,77,0.00,,,0.00,WUHU216HW,2013-06-21 07:21:00,
2013-06-21 02:26:00,75.8,68.0,29.94,SSE,158,8.1,8.9,77,0.00,,,0.00,WUHU216HW,2013-06-21 07:26:00,
2013-06-21 02:31:00,75.8,68.5,29.94,South,180,6.3,8.9,78,0.00,,,0.00,WUHU216HW,2013-06-21 07:31:00,
2013-06-21 02:36:00,75.8,68.0,29.94,South,180,9.2,9.2,77,0.00,,,0.00,WUHU216HW,2013-06-21 07:36:00,
2013-06-21 02:41:00,75.8,68.5,29.94,SSE,158,8.5,9.2,78,0.00,,,0.00,WUHU216HW,2013-06-21 07:41:00,
2013-06-21 02:46:00,75.8,68.5,29.94,South,180,9.4,9.4,78,0.00,,,0.00,WUHU216HW,2013-06-21 07:46:00,
2013-06-21 02:51:00,75.6,68.3,29.94,SSW,203,6.3,9.4,78,0.00,,,0.00,WUHU216HW,2013-06-21 07:51:00,
2013-06-21 02:56:00,75.6,68.3,29.93,South,180,8.3,8.3,78,0.00,,,0.00,WUHU216HW,2013-06-21 07:56:00,
2013-06-21 03:01:00,75.4,68.1,29.94,SSW,203,8.3,8.3,78,0.00,,,0.00,WUHU216HW,2013-06-21 08:01:00,
2013-06-21 03:06:00,75.4,68.1,29.93,South,180,9.8,9.8,78,0.00,,,0.00,WUHU216HW,2013-06-21 08:06:00,
2013-06-21 03:11:00,75.4,68.1,29.94,SSE,158,11.9,11.9,78,0.00,,,0.00,WUHU216HW,2013-06-21 08:11:00,
2013-06-21 03:16:00,75.4,68.1,29.94,SSW,203,5.6,11.9,78,0.00,,,0.00,WUHU216HW,2013-06-21 08:16:00,
2013-06-21 03:21:00,75.4,68.1,29.94,South,180,7.6,11.9,78,0.00,,,0.00,WUHU216HW,2013-06-21 08:21:00,
2013-06-21 03:26:00,75.2,68.4,29.93,South,180,5.8,8.7,79,0.00,,,0.00,WUHU216HW,2013-06-21 08:26:00,
2013-06-21 03:31:00,75.2,68.4,29.93,SSW,203,8.5,8.5,79,0.00,,,0.00,WUHU216HW,2013-06-21 08:31:00,
2013-06-21 03:36:00,75.2,68.4,29.93,SSW,203,9.2,9.2,79,0.00,,,0.00,WUHU216HW,2013-06-21 08:36:00,
2013-06-21 03:41:00,75.4,68.5,29.93,South,180,7.8,9.2,79,0.00,,,0.00,WUHU216HW,2013-06-21 08:41:00,
2013-06-21 03:46:00,75.4,68.5,29.93,SSW,203,7.6,9.2,79,0.00,,,0.00,WUHU216HW,2013-06-21 08:46:00,
2013-06-21 03:51:00,75.4,68.5,29.93,SSW,203,9.8,9.8,79,0.00,,,0.00,WUHU216HW,2013-06-21 08:51:00,
2013-06-21 03:56:00,75.4,69.0,29.93,SSW,203,11.4,11.4,80,0.00,,,0.00,WUHU216HW,2013-06-21 08:56:00,
2013-06-21 04:01:00,75.2,68.8,29.93,SSW,203,11.4,11.4,80,0.00,,,0.00,WUHU216HW,2013-06-21 09:01:00,
2013-06-21 04:06:00,75.2,68.8,29.93,SSW,203,5.6,11.4,80,0.00,,,0.00,WUHU216HW,2013-06-21 09:06:00,
2013-06-21 04:11:00,75.2,68.8,29.93,SSW,203,9.2,9.2,80,0.00,,,0.00,WUHU216HW,2013-06-21 09:11:00,
2013-06-21 04:16:00,75.2,68.8,29.93,SW,225,8.9,9.2,80,0.00,,,0.00,WUHU216HW,2013-06-21 09:16:00,
2013-06-21 04:21:00,75.2,69.1,29.93,SW,225,9.8,9.8,81,0.00,,,0.00,WUHU216HW,2013-06-21 09:21:00,
2013-06-21 04:26:00,75.2,69.1,29.93,SSE,158,8.7,9.8,81,0.00,,,0.00,WUHU216HW,2013-06-21 09:26:00,
2013-06-21 04:31:00,75.2,69.1,29.93,South,180,6.9,9.8,81,0.00,,,0.00,WUHU216HW,2013-06-21 09:31:00,
2013-06-21 04:36:00,75.2,69.1,29.93,SSW,203,6.3,11.9,81,0.00,,,0.00,WUHU216HW,2013-06-21 09:36:00,
2013-06-21 04:41:00,75.2,69.1,29.94,South,180,6.5,11.9,81,0.00,,,0.00,WUHU216HW,2013-06-21 09:41:00,
2013-06-21 04:46:00,75.1,69.0,29.94,South,180,5.6,6.5,81,0.00,,,0.00,WUHU216HW,2013-06-21 09:46:00,
2013-06-21 04:51:00,74.9,68.8,29.94,SSE,158,7.6,7.6,81,0.00,,,0.00,WUHU216HW,2013-06-21 09:51:00,
2013-06-21 04:56:00,74.9,68.8,29.93,South,180,6.5,7.6,81,0.00,,,0.00,WUHU216HW,2013-06-21 09:56:00,
2013-06-21 05:01:00,74.9,69.1,29.93,South,180,8.3,8.3,82,0.00,,,0.00,WUHU216HW,2013-06-21 10:01:00,
2013-06-21 05:06:00,74.7,69.0,29.93,SSW,203,6.9,8.3,82,0.00,,,0.00,WUHU216HW,2013-06-21 10:06:00,
2013-06-21 05:11:00,74.5,68.8,29.93,South,180,5.6,6.9,82,0.00,,,0.00,WUHU216HW,2013-06-21 10:11:00,
2013-06-21 05:16:00,74.5,68.8,29.93,SSW,203,5.8,6.9,82,0.00,,,0.00,WUHU216HW,2013-06-21 10:16:00,
2013-06-21 05:21:00,74.3,68.9,29.93,SSE,158,8.3,8.3,83,0.00,,,0.00,WUHU216HW,2013-06-21 10:21:00,
2013-06-21 05:26:00,74.3,68.9,29.94,SSW,203,9.2,9.2,83,0.00,,,0.00,WUHU216HW,2013-06-21 10:26:00,
2013-06-21 05:31:00,74.3,68.9,29.94,SSW,203,5.1,9.2,83,0.00,,,0.00,WUHU216HW,2013-06-21 10:31:00,
2013-06-21 05:36:00,74.3,68.9,29.94,South,180,6.3,9.2,83,0.00,,,0.00,WUHU216HW,2013-06-21 10:36:00,
2013-06-21 05:41:00,74.2,68.7,29.94,SSW,203,5.1,6.3,83,0.00,,,0.00,WUHU216HW,2013-06-21 10:41:00,
2013-06-21 05:46:00,74.2,68.7,29.94,SSW,203,4.9,5.4,83,0.00,,,0.00,WUHU216HW,2013-06-21 10:46:00,
2013-06-21 05:51:00,74.2,69.0,29.94,SSW,203,4.0,5.1,84,0.00,,,0.00,WUHU216HW,2013-06-21 10:51:00,
2013-06-21 05:56:00,74.0,68.9,29.94,SSE,158,7.4,7.4,84,0.00,,,0.00,WUHU216HW,2013-06-21 10:56:00,
2013-06-21 06:01:00,74.0,68.9,29.94,South,180,4.0,7.4,84,0.00,,,0.00,WUHU216HW,2013-06-21 11:01:00,
2013-06-21 06:06:00,74.0,68.9,29.94,SSE,158,6.7,7.4,84,0.00,,,0.00,WUHU216HW,2013-06-21 11:06:00,
2013-06-21 06:11:00,74.2,69.0,29.94,SSW,203,6.5,6.7,84,0.00,,,0.00,WUHU216HW,2013-06-21 11:11:00,
2013-06-21 06:16:00,74.2,69.0,29.94,South,180,6.3,6.5,84,0.00,,,0.00,WUHU216HW,2013-06-21 11:16:00,
2013-06-21 06:21:00,74.3,69.6,29.94,South,180,6.7,6.7,85,0.00,,,0.00,WUHU216HW,2013-06-21 11:21:00,
2013-06-21 06:26:00,74.5,69.4,29.94,SSW,203,5.8,7.2,84,0.00,,,0.00,WUHU216HW,2013-06-21 11:26:00,
2013-06-21 06:31:00,74.7,69.6,29.95,South,180,5.4,7.2,84,0.00,,,0.00,WUHU216HW,2013-06-21 11:31:00,
2013-06-21 06:36:00,74.9,69.4,29.95,SSW,203,5.6,5.8,83,0.00,,,0.00,WUHU216HW,2013-06-21 11:36:00,
2013-06-21 06:41:00,75.2,69.8,29.95,South,180,5.8,5.8,83,0.00,,,0.00,WUHU216HW,2013-06-21 11:41:00,
2013-06-21 06:46:00,75.4,69.9,29.95,South,180,9.2,9.2,83,0.00,,,0.00,WUHU216HW,2013-06-21 11:46:00,
2013-06-21 06:51:00,75.6,70.1,29.96,South,180,6.7,9.2,83,0.00,,,0.00,WUHU216HW,2013-06-21 11:51:00,
2013-06-21 06:56:00,75.8,69.9,29.95,SSE,158,5.6,9.2,82,0.00,,,0.00,WUHU216HW,2013-06-21 11:56:00,
2013-06-21 07:01:00,76.0,70.1,29.95,South,180,6.0,6.5,82,0.00,,,0.00,WUHU216HW,2013-06-21 12:01:00,
2013-06-21 07:06:00,76.1,70.3,29.95,South,180,6.5,6.5,82,0.00,,,0.00,WUHU216HW,2013-06-21 12:06:00,
2013-06-21 07:11:00,76.3,70.1,29.96,South,180,5.6,6.7,81,0.00,,,0.00,WUHU216HW,2013-06-21 12:11:00,
2013-06-21 07:16:00,76.3,70.5,29.95,SSW,203,4.5,6.7,82,0.00,,,0.00,WUHU216HW,2013-06-21 12:16:00,
2013-06-21 07:21:00,77.0,70.7,29.95,SSW,203,6.5,6.5,81,0.00,,,0.00,WUHU216HW,2013-06-21 12:21:00,
2013-06-21 07:26:00,77.8,70.8,29.95,South,180,8.1,8.1,79,0.00,,,0.00,WUHU216HW,2013-06-21 12:26:00,
2013-06-21 07:31:00,77.6,70.6,29.95,South,180,9.4,9.4,79,0.00,,,0.00,WUHU216HW,2013-06-21 12:31:00,
2013-06-21 07:36:00,77.4,70.7,29.95,South,180,7.8,9.4,80,0.00,,,0.00,WUHU216HW,2013-06-21 12:36:00,
2013-06-21 07:41:00,77.6,70.6,29.96,South,180,8.5,9.8,79,0.00,,,0.00,WUHU216HW,2013-06-21 12:41:00,
2013-06-21 07:46:00,77.4,70.7,29.95,SSW,203,7.6,9.8,80,0.00,,,0.00,WUHU216HW,2013-06-21 12:46:00,
2013-06-21 07:51:00,77.2,70.6,29.95,South,180,8.9,8.9,80,0.00,,,0.00,WUHU216HW,2013-06-21 12:51:00,
2013-06-21 07:56:00,77.0,70.7,29.96,South,180,8.9,11.2,81,0.00,,,0.00,WUHU216HW,2013-06-21 12:56:00,
2013-06-21 08:01:00,77.0,70.7,29.96,South,180,9.2,11.2,81,0.00,,,0.00,WUHU216HW,2013-06-21 13:01:00,
2013-06-21 08:06:00,77.2,70.9,29.95,SSE,158,6.5,9.2,81,0.00,,,0.00,WUHU216HW,2013-06-21 13:06:00,
2013-06-21 08:11:00,77.8,71.1,29.95,SSW,203,8.3,9.2,80,0.00,,,0.00,WUHU216HW,2013-06-21 13:11:00,
2013-06-21 08:16:00,78.1,71.1,29.95,SSW,203,5.4,8.3,79,0.00,,,0.00,WUHU216HW,2013-06-21 13:16:00,
2013-06-21 08:21:00,78.5,71.0,29.96,SSW,203,8.3,8.3,78,0.00,,,0.00,WUHU216HW,2013-06-21 13:21:00,
2013-06-21 08:26:00,79.0,71.2,29.96,South,180,11.2,11.2,77,0.00,,,0.00,WUHU216HW,2013-06-21 13:26:00,
2013-06-21 08:31:00,79.0,71.6,29.96,South,180,6.7,11.2,78,0.00,,,0.00,WUHU216HW,2013-06-21 13:31:00,
2013-06-21 08:36:00,79.0,71.6,29.96,SE,135,5.4,11.2,78,0.00,,,0.00,WUHU216HW,2013-06-21 13:36:00,
2013-06-21 08:41:00,79.7,71.9,29.96,SSW,203,7.6,9.8,77,0.00,,,0.00,WUHU216HW,2013-06-21 13:41:00,
2013-06-21 08:46:00,79.9,71.6,29.96,South,180,9.6,9.8,76,0.00,,,0.00,WUHU216HW,2013-06-21 13:46:00,
2013-06-21 08:51:00,80.1,71.8,29.96,SSW,203,9.2,9.6,76,0.00,,,0.00,WUHU216HW,2013-06-21 13:51:00,
2013-06-21 08:56:00,80.6,72.0,29.96,South,180,9.8,9.8,75,0.00,,,0.00,WUHU216HW,2013-06-21 13:56:00,
2013-06-21 09:01:00,80.3,71.6,29.96,SSW,203,8.9,9.8,75,0.00,,,0.00,WUHU216HW,2013-06-21 14:01:00,
2013-06-21 09:07:00,79.9,71.3,29.96,SW,225,10.5,10.5,75,0.00,,,0.00,WUHU216HW,2013-06-21 14:07:00,
2013-06-21 09:12:00,80.3,72.5,29.96,South,180,6.3,10.5,77,0.00,,,0.00,WUHU216HW,2013-06-21 14:12:00,
2013-06-21 09:17:00,81.0,72.4,29.96,SSW,203,8.7,8.7,75,0.00,,,0.00,WUHU216HW,2013-06-21 14:17:00,
2013-06-21 09:22:00,81.4,72.3,29.96,South,180,11.4,11.4,74,0.00,,,0.00,WUHU216HW,2013-06-21 14:22:00,
2013-06-21 09:27:00,81.0,71.9,29.96,SSW,203,9.8,11.4,74,0.00,,,0.00,WUHU216HW,2013-06-21 14:27:00,
2013-06-21 09:32:00,80.8,72.2,29.96,SSW,203,11.0,11.4,75,0.00,,,0.00,WUHU216HW,2013-06-21 14:32:00,
2013-06-21 09:38:00,80.6,72.0,29.97,SSW,203,8.5,11.0,75,0.00,,,0.00,WUHU216HW,2013-06-21 14:38:00,
2013-06-21 09:43:00,80.6,72.0,29.96,South,180,5.8,8.5,75,0.00,,,0.00,WUHU216HW,2013-06-21 14:43:00,
2013-06-21 09:48:00,82.6,73.4,29.97,SSW,203,12.1,12.1,74,0.00,,,0.00,WUHU216HW,2013-06-21 14:48:00,
2013-06-21 09:53:00,82.8,72.8,29.97,South,180,8.7,12.1,72,0.00,,,0.00,WUHU216HW,2013-06-21 14:53:00,
2013-06-21 09:58:00,82.1,72.5,29.96,SSW,203,9.8,12.1,73,0.00,,,0.00,WUHU216HW,2013-06-21 14:58:00,
2013-06-21 10:03:00,82.4,72.5,29.96,SSW,203,10.1,10.1,72,0.00,,,0.00,WUHU216HW,2013-06-21 15:03:00,
2013-06-21 10:08:00,82.4,73.7,29.96,South,180,6.7,10.1,75,0.00,,,0.00,WUHU216HW,2013-06-21 15:08:00,
2013-06-21 10:13:00,82.8,73.3,29.96,SSE,158,8.9,10.1,73,0.00,,,0.00,WUHU216HW,2013-06-21 15:13:00,
2013-06-21 10:18:00,83.0,73.0,29.96,South,180,6.3,8.9,72,0.00,,,0.00,WUHU216HW,2013-06-21 15:18:00,
2013-06-21 10:23:00,83.0,73.5,29.96,South,180,6.3,7.6,73,0.00,,,0.00,WUHU216HW,2013-06-21 15:23:00,
2013-06-21 10:28:00,83.0,73.5,29.96,SSW,203,7.6,7.6,73,0.00,,,0.00,WUHU216HW,2013-06-21 15:28:00,
2013-06-21 10:33:00,83.5,73.9,29.96,SSW,203,11.0,11.0,73,0.00,,,0.00,WUHU216HW,2013-06-21 15:33:00,
2013-06-21 10:38:00,84.6,74.6,29.96,SSW,203,8.1,11.0,72,0.00,,,0.00,WUHU216HW,2013-06-21 15:38:00,
2013-06-21 10:43:00,84.2,73.0,29.96,SSW,203,11.0,12.1,69,0.00,,,0.00,WUHU216HW,2013-06-21 15:43:00,
2013-06-21 10:48:00,83.9,73.9,29.96,South,180,7.6,12.1,72,0.00,,,0.00,WUHU216HW,2013-06-21 15:48:00,
2013-06-21 10:53:00,84.1,73.3,29.96,SW,225,11.4,11.4,70,0.00,,,0.00,WUHU216HW,2013-06-21 15:53:00,
2013-06-21 10:58:00,85.0,73.7,29.96,South,180,11.0,11.4,69,0.00,,,0.00,WUHU216HW,2013-06-21 15:58:00,
2013-06-21 11:03:00,85.1,73.9,29.96,South,180,11.4,11.4,69,0.00,,,0.00,WUHU216HW,2013-06-21 16:03:00,
2013-06-21 11:08:00,84.4,74.0,29.97,South,180,6.9,11.4,71,0.00,,,0.00,WUHU216HW,2013-06-21 16:08:00,
2013-06-21 11:13:00,84.4,73.2,29.96,South,180,10.5,11.4,69,0.00,,,0.00,WUHU216HW,2013-06-21 16:13:00,
2013-06-21 11:18:00,84.1,73.3,29.96,South,180,8.1,10.5,70,0.00,,,0.00,WUHU216HW,2013-06-21 16:18:00,
2013-06-21 11:23:00,83.7,72.9,29.96,SSW,203,9.8,10.5,70,0.00,,,0.00,WUHU216HW,2013-06-21 16:23:00,
2013-06-21 11:28:00,84.2,73.8,29.96,SSW,203,9.8,13.9,71,0.00,,,0.00,WUHU216HW,2013-06-21 16:28:00,
2013-06-21 11:33:00,85.3,74.5,29.96,SSW,203,7.6,13.9,70,0.00,,,0.00,WUHU216HW,2013-06-21 16:33:00,
2013-06-21 11:39:00,86.0,74.8,29.96,SSW,203,7.8,9.8,69,0.00,,,0.00,WUHU216HW,2013-06-21 16:39:00,
2013-06-21 11:44:00,86.8,74.5,29.96,SSW,203,7.6,10.3,67,0.00,,,0.00,WUHU216HW,2013-06-21 16:44:00,
2013-06-21 11:49:00,86.8,74.5,29.96,South,180,7.2,10.3,67,0.00,,,0.00,WUHU216HW,2013-06-21 16:49:00,
2013-06-21 11:54:00,87.1,74.9,29.96,South,180,10.5,10.5,67,0.00,,,0.00,WUHU216HW,2013-06-21 16:54:00,
2013-06-21 11:59:00,87.3,75.0,29.96,South,180,8.3,10.5,67,0.00,,,0.00,WUHU216HW,2013-06-21 16:59:00,
2013-06-21 12:04:00,86.0,74.8,29.96,SSW,203,6.0,8.3,69,0.00,,,0.00,WUHU216HW,2013-06-21 17:04:00,
2013-06-21 12:09:00,85.7,74.0,29.96,South,180,9.2,9.2,68,0.00,,,0.00,WUHU216HW,2013-06-21 17:09:00,
2013-06-21 12:15:00,85.7,74.4,29.96,South,180,8.9,9.2,69,0.00,,,0.00,WUHU216HW,2013-06-21 17:15:00,
2013-06-21 12:20:00,86.0,75.2,29.96,South,180,5.4,8.9,70,0.00,,,0.00,WUHU216HW,2013-06-21 17:20:00,
2013-06-21 12:25:00,87.1,75.3,29.96,SSE,158,8.3,8.9,68,0.00,,,0.00,WUHU216HW,2013-06-21 17:25:00,
2013-06-21 12:31:00,88.2,75.0,29.96,SSW,203,11.4,11.4,65,0.00,,,0.00,WUHU216HW,2013-06-21 17:31:00,
2013-06-21 12:36:00,88.2,74.1,29.96,SSW,203,8.3,11.4,63,0.00,,,0.00,WUHU216HW,2013-06-21 17:36:00,
2013-06-21 12:41:00,88.4,74.7,29.96,SSW,203,10.3,11.4,64,0.00,,,0.00,WUHU216HW,2013-06-21 17:41:00,
2013-06-21 12:46:00,88.4,74.7,29.96,SSW,203,10.3,10.3,64,0.00,,,0.00,WUHU216HW,2013-06-21 17:46:00,
2013-06-21 12:48:00,88.9,74.3,29.95,South,180,12.8,12.8,62,0.00,,,0.00,WUHU216HW,2013-06-21 17:48:00,
2013-06-21 12:53:00,88.4,73.8,29.96,South,180,11.9,12.8,62,0.00,,,0.00,WUHU216HW,2013-06-21 17:53:00,
2013-06-21 12:59:00,88.6,74.3,29.95,SW,225,7.6,12.8,63,0.00,,,0.00,WUHU216HW,2013-06-21 17:59:00,
2013-06-21 13:04:00,88.7,75.0,29.95,SW,225,10.5,11.9,64,0.00,,,0.00,WUHU216HW,2013-06-21 18:04:00,
2013-06-21 13:09:00,88.9,74.3,29.95,South,180,11.0,11.6,62,0.00,,,0.00,WUHU216HW,2013-06-21 18:09:00,
2013-06-21 13:14:00,88.9,74.7,29.95,SSW,203,6.9,11.6,63,0.00,,,0.00,WUHU216HW,2013-06-21 18:14:00,
2013-06-21 13:19:00,89.3,74.6,29.94,SSW,203,10.3,11.0,62,0.00,,,0.00,WUHU216HW,2013-06-21 18:19:00,
2013-06-21 13:23:00,89.3,73.6,29.94,South,180,11.0,11.0,60,0.00,,,0.00,WUHU216HW,2013-06-21 18:23:00,
2013-06-21 13:28:00,89.3,73.6,29.94,South,180,13.4,13.4,60,0.00,,,0.00,WUHU216HW,2013-06-21 18:28:00,
2013-06-21 13:33:00,89.5,74.8,29.94,SSW,203,9.2,13.4,62,0.00,,,0.00,WUHU216HW,2013-06-21 18:33:00,
2013-06-21 13:38:00,89.6,74.9,29.94,SSE,158,9.8,13.4,62,0.00,,,0.00,WUHU216HW,2013-06-21 18:38:00,
2013-06-21 13:44:00,90.4,75.1,29.94,South,180,10.5,10.5,61,0.00,,,0.00,WUHU216HW,2013-06-21 18:44:00,
2013-06-21 13:45:00,90.4,75.1,29.94,South,180,10.5,10.5,61,0.00,,,0.00,WUHU216HW,2013-06-21 18:45:00,
2013-06-21 13:46:00,90.7,75.4,29.94,South,180,9.6,10.5,61,0.00,,,0.00,WUHU216HW,2013-06-21 18:46:00,
2013-06-21 13:51:00,90.4,74.6,29.94,WSW,248,10.5,10.5,60,0.00,,,0.00,WUHU216HW,2013-06-21 18:51:00,
2013-06-21 13:56:00,90.0,73.3,29.93,South,180,11.4,11.4,58,0.00,,,0.00,WUHU216HW,2013-06-21 18:56:00,
2013-06-21 14:01:00,90.4,74.6,29.93,SSW,203,13.4,13.4,60,0.00,,,0.00,WUHU216HW,2013-06-21 19:01:00,
2013-06-21 14:06:00,90.2,74.4,29.93,South,180,15.2,15.2,60,0.00,,,0.00,WUHU216HW,2013-06-21 19:06:00,
2013-06-21 14:11:00,90.2,74.4,29.93,South,180,14.3,15.2,60,0.00,,,0.00,WUHU216HW,2013-06-21 19:11:00,
2013-06-21 14:16:00,90.5,75.2,29.93,SSW,203,11.0,15.2,61,0.00,,,0.00,WUHU216HW,2013-06-21 19:16:00,
2013-06-21 14:20:00,90.7,75.0,29.93,SSE,158,12.8,14.3,60,0.00,,,0.00,WUHU216HW,2013-06-21 19:20:00,
2013-06-21 14:25:00,90.4,75.1,29.92,SW,225,9.2,13.2,61,0.00,,,0.00,WUHU216HW,2013-06-21 19:25:00,
2013-06-21 14:30:00,90.2,74.4,29.92,SSW,203,9.8,13.2,60,0.00,,,0.00,WUHU216HW,2013-06-21 19:30:00,
2013-06-21 14:35:00,90.5,74.8,29.92,SSW,203,12.8,12.8,60,0.00,,,0.00,WUHU216HW,2013-06-21 19:35:00,
2013-06-21 14:40:00,90.9,74.6,29.92,South,180,12.1,12.8,59,0.00,,,0.00,WUHU216HW,2013-06-21 19:40:00,
2013-06-21 14:42:00,90.9,74.6,29.92,South,180,12.1,12.8,59,0.00,,,0.00,WUHU216HW,2013-06-21 19:42:00,
2013-06-21 14:48:00,91.1,74.2,29.92,SSW,203,9.2,12.1,58,0.00,,,0.00,WUHU216HW,2013-06-21 19:48:00,
2013-06-21 14:53:00,91.1,75.2,29.92,South,180,8.5,12.8,60,0.00,,,0.00,WUHU216HW,2013-06-21 19:53:00,
2013-06-21 14:58:00,91.6,75.8,29.92,South,180,6.9,12.8,60,0.00,,,0.00,WUHU216HW,2013-06-21 19:58:00,
2013-06-21 15:03:00,91.8,76.0,29.92,SSW,203,11.2,13.4,60,0.00,,,0.00,WUHU216HW,2013-06-21 20:03:00,
2013-06-21 15:04:00,91.8,76.0,29.92,SSW,203,11.2,13.4,60,0.00,,,0.00,WUHU216HW,2013-06-21 20:04:00,
2013-06-21 15:08:00,91.4,75.1,29.91,South,180,11.2,13.4,59,0.00,,,0.00,WUHU216HW,2013-06-21 20:08:00,
2013-06-21 15:11:00,91.8,74.9,29.91,SW,225,10.3,13.4,58,0.00,,,0.00,WUHU216HW,2013-06-21 20:11:00,
2013-06-21 15:14:00,91.8,74.9,29.92,SW,225,10.3,11.2,58,0.00,,,0.00,WUHU216HW,2013-06-21 20:14:00,
2013-06-21 15:19:00,91.1,74.2,29.91,SSE,158,15.9,15.9,58,0.00,,,0.00,WUHU216HW,2013-06-21 20:19:00,
2013-06-21 15:24:00,91.4,76.1,29.91,South,180,9.2,15.9,61,0.00,,,0.00,WUHU216HW,2013-06-21 20:24:00,
2013-06-21 15:29:00,91.8,74.9,29.91,South,180,10.5,12.1,58,0.00,,,0.00,WUHU216HW,2013-06-21 20:29:00,
2013-06-21 15:34:00,91.8,74.9,29.91,SSW,203,9.6,10.5,58,0.00,,,0.00,WUHU216HW,2013-06-21 20:34:00,
2013-06-21 15:39:00,91.4,73.4,29.91,SSW,203,11.2,12.3,56,0.00,,,0.00,WUHU216HW,2013-06-21 20:39:00,
2013-06-21 15:44:00,91.4,75.1,29.91,South,180,9.6,12.3,59,0.00,,,0.00,WUHU216HW,2013-06-21 20:44:00,
2013-06-21 15:49:00,91.6,74.2,29.91,South,180,11.0,11.2,57,0.00,,,0.00,WUHU216HW,2013-06-21 20:49:00,
2013-06-21 15:54:00,91.8,74.4,29.90,South,180,13.4,13.4,57,0.00,,,0.00,WUHU216HW,2013-06-21 20:54:00,
2013-06-21 15:59:00,91.4,73.4,29.91,South,180,11.0,13.4,56,0.00,,,0.00,WUHU216HW,2013-06-21 20:59:00,
2013-06-21 16:04:00,91.3,73.8,29.91,SSW,203,12.8,13.4,57,0.00,,,0.00,WUHU216HW,2013-06-21 21:04:00,
2013-06-21 16:09:00,91.8,74.4,29.91,South,180,11.2,12.8,57,0.00,,,0.00,WUHU216HW,2013-06-21 21:09:00,
2013-06-21 16:14:00,91.8,73.8,29.91,SSE,158,8.7,11.2,56,0.00,,,0.00,WUHU216HW,2013-06-21 21:14:00,
2013-06-21 16:19:00,91.8,74.4,29.91,South,180,8.5,11.2,57,0.00,,,0.00,WUHU216HW,2013-06-21 21:19:00,
2013-06-21 16:24:00,92.0,74.0,29.91,South,180,8.1,10.5,56,0.00,,,0.00,WUHU216HW,2013-06-21 21:24:00,
2013-06-21 16:29:00,92.2,73.6,29.90,SSW,203,8.7,10.5,55,0.00,,,0.00,WUHU216HW,2013-06-21 21:29:00,
2013-06-21 16:34:00,92.0,75.1,29.90,SSW,203,6.9,8.7,58,0.00,,,0.00,WUHU216HW,2013-06-21 21:34:00,
2013-06-21 16:39:00,92.0,73.5,29.90,SSW,203,14.1,14.1,55,0.00,,,0.00,WUHU216HW,2013-06-21 21:39:00,
2013-06-21 16:44:00,92.2,74.2,29.90,SSW,203,9.4,14.1,56,0.00,,,0.00,WUHU216HW,2013-06-21 21:44:00,
2013-06-21 16:49:00,92.3,73.8,29.90,SSW,203,14.3,14.3,55,0.00,,,0.00,WUHU216HW,2013-06-21 21:49:00,
2013-06-21 16:54:00,92.0,73.5,29.91,SW,225,11.0,14.3,55,0.00,,,0.00,WUHU216HW,2013-06-21 21:54:00,
2013-06-21 16:59:00,92.2,74.7,29.91,SSW,203,5.8,11.0,57,0.00,,,0.00,WUHU216HW,2013-06-21 21:59:00,
2013-06-21 17:04:00,92.2,74.7,29.91,SW,225,6.5,11.0,57,0.00,,,0.00,WUHU216HW,2013-06-21 22:04:00,
2013-06-21 17:09:00,91.6,73.6,29.91,South,180,10.5,10.5,56,0.00,,,0.00,WUHU216HW,2013-06-21 22:09:00,
2013-06-21 17:14:00,90.7,73.4,29.90,SSW,203,10.3,10.5,57,0.00,,,0.00,WUHU216HW,2013-06-21 22:14:00,
2013-06-21 17:19:00,90.5,73.2,29.90,South,180,11.6,11.6,57,0.00,,,0.00,WUHU216HW,2013-06-21 22:19:00,
2013-06-21 17:24:00,90.7,73.9,29.90,South,180,7.4,11.6,58,0.00,,,0.00,WUHU216HW,2013-06-21 22:24:00,
2013-06-21 17:29:00,91.4,73.4,29.90,South,180,14.3,14.3,56,0.00,,,0.00,WUHU216HW,2013-06-21 22:29:00,
2013-06-21 17:34:00,91.3,72.7,29.90,SSW,203,11.4,14.3,55,0.00,,,0.00,WUHU216HW,2013-06-21 22:34:00,
2013-06-21 17:39:00,91.6,73.6,29.90,South,180,8.5,14.3,56,0.00,,,0.00,WUHU216HW,2013-06-21 22:39:00,
2013-06-21 17:44:00,91.6,72.6,29.89,SSW,203,11.4,11.4,54,0.00,,,0.00,WUHU216HW,2013-06-21 22:44:00,
2013-06-21 17:49:00,91.6,73.6,29.90,SW,225,7.2,11.4,56,0.00,,,0.00,WUHU216HW,2013-06-21 22:49:00,
2013-06-21 17:54:00,91.8,73.8,29.89,SSW,203,6.9,11.4,56,0.00,,,0.00,WUHU216HW,2013-06-21 22:54:00,
2013-06-21 17:59:00,92.0,73.5,29.89,South,180,11.6,11.6,55,0.00,,,0.00,WUHU216HW,2013-06-21 22:59:00,
2013-06-21 18:04:00,91.6,72.6,29.89,SSW,203,15.7,15.7,54,0.00,,,0.00,WUHU216HW,2013-06-21 23:04:00,
2013-06-21 18:09:00,90.9,73.0,29.90,South,180,6.0,15.7,56,0.00,,,0.00,WUHU216HW,2013-06-21 23:09:00,
2013-06-21 18:14:00,90.7,72.8,29.89,South,180,8.7,11.0,56,0.00,,,0.00,WUHU216HW,2013-06-21 23:14:00,
2013-06-21 18:19:00,90.5,72.6,29.90,SSW,203,10.5,10.5,56,0.00,,,0.00,WUHU216HW,2013-06-21 23:19:00,
2013-06-21 18:24:00,90.4,72.5,29.90,South,180,9.2,10.5,56,0.00,,,0.00,WUHU216HW,2013-06-21 23:24:00,
2013-06-21 18:29:00,90.5,72.1,29.90,SSE,158,8.9,10.5,55,0.00,,,0.00,WUHU216HW,2013-06-21 23:29:00,
2013-06-21 18:34:00,90.4,71.9,29.90,South,180,11.4,11.4,55,0.00,,,0.00,WUHU216HW,2013-06-21 23:34:00,
2013-06-21 18:39:00,90.4,72.5,29.90,SW,225,7.8,11.4,56,0.00,,,0.00,WUHU216HW,2013-06-21 23:39:00,
2013-06-21 18:44:00,90.0,72.2,29.90,South,180,8.7,11.4,56,0.00,,,0.00,WUHU216HW,2013-06-21 23:44:00,
2013-06-21 18:49:00,90.0,72.2,29.90,South,180,6.9,8.9,56,0.00,,,0.00,WUHU216HW,2013-06-21 23:49:00,
2013-06-21 18:54:00,89.8,72.6,29.90,SSW,203,7.4,8.7,57,0.00,,,0.00,WUHU216HW,2013-06-21 23:54:00,
2013-06-21 18:59:00,89.6,72.4,29.90,South,180,11.2,11.2,57,0.00,,,0.00,WUHU216HW,2013-06-21 23:59:00,
2013-06-21 19:04:00,89.1,72.5,29.90,South,180,8.5,11.2,58,0.00,,,0.00,WUHU216HW,2013-06-22 00:04:00,
2013-06-21 19:09:00,89.3,72.5,29.90,SSW,203,8.9,11.2,58,0.00,,,0.00,WUHU216HW,2013-06-22 00:09:00,
2013-06-21 19:14:00,88.9,73.4,29.90,SSW,203,5.4,8.9,60,0.00,,,0.00,WUHU216HW,2013-06-22 00:14:00,
2013-06-21 19:19:00,88.9,73.4,29.90,SSW,203,4.7,8.9,60,0.00,,,0.00,WUHU216HW,2013-06-22 00:19:00,
2013-06-21 19:24:00,88.2,72.7,29.89,SSW,203,8.7,8.7,60,0.00,,,0.00,WUHU216HW,2013-06-22 00:24:00,
2013-06-21 19:29:00,87.8,73.7,29.89,SSW,203,5.4,8.7,63,0.00,,,0.00,WUHU216HW,2013-06-22 00:29:00,
2013-06-21 19:34:00,87.3,73.6,29.90,SSW,203,5.6,8.7,64,0.00,,,0.00,WUHU216HW,2013-06-22 00:34:00,
2013-06-21 19:39:00,86.8,73.6,29.90,SW,225,3.8,5.6,65,0.00,,,0.00,WUHU216HW,2013-06-22 00:39:00,
2013-06-21 19:44:00,86.8,74.1,29.90,SSW,203,3.6,3.8,66,0.00,,,0.00,WUHU216HW,2013-06-22 00:44:00,
2013-06-21 19:49:00,86.4,73.7,29.90,South,180,7.4,7.4,66,0.00,,,0.00,WUHU216HW,2013-06-22 00:49:00,
2013-06-21 19:54:00,86.4,73.7,29.89,SSW,203,5.4,7.4,66,0.00,,,0.00,WUHU216HW,2013-06-22 00:54:00,
2013-06-21 19:59:00,86.0,73.4,29.89,SSW,203,7.8,7.8,66,0.00,,,0.00,WUHU216HW,2013-06-22 00:59:00,
2013-06-21 20:04:00,85.7,73.0,29.89,SSW,203,7.2,7.8,66,0.00,,,0.00,WUHU216HW,2013-06-22 01:04:00,
2013-06-21 20:09:00,85.5,73.4,29.89,SSW,203,5.4,7.2,67,0.00,,,0.00,WUHU216HW,2013-06-22 01:09:00,
2013-06-21 20:14:00,85.3,73.2,29.90,SW,225,5.6,7.2,67,0.00,,,0.00,WUHU216HW,2013-06-22 01:14:00,
2013-06-21 20:19:00,85.3,73.2,29.89,SSW,203,6.5,6.7,67,0.00,,,0.00,WUHU216HW,2013-06-22 01:19:00,
2013-06-21 20:24:00,85.1,73.0,29.90,SSW,203,4.3,6.7,67,0.00,,,0.00,WUHU216HW,2013-06-22 01:24:00,
2013-06-21 20:29:00,85.0,72.8,29.89,South,180,4.3,6.5,67,0.00,,,0.00,WUHU216HW,2013-06-22 01:29:00,
2013-06-21 20:34:00,84.8,72.6,29.89,South,180,5.4,5.4,67,0.00,,,0.00,WUHU216HW,2013-06-22 01:34:00,
2013-06-21 20:39:00,84.2,72.1,29.89,South,180,6.0,6.0,67,0.00,,,0.00,WUHU216HW,2013-06-22 01:39:00,
2013-06-21 20:44:00,84.1,72.4,29.90,South,180,4.7,6.0,68,0.00,,,0.00,WUHU216HW,2013-06-22 01:44:00,
2013-06-21 20:49:00,83.9,72.2,29.90,SSE,158,4.7,6.0,68,0.00,,,0.00,WUHU216HW,2013-06-22 01:49:00,
2013-06-21 20:54:00,83.5,72.3,29.90,South,180,4.0,4.7,69,0.00,,,0.00,WUHU216HW,2013-06-22 01:54:00,
2013-06-21 20:59:00,83.2,71.9,29.90,SSE,158,3.8,4.0,69,0.00,,,0.00,WUHU216HW,2013-06-22 01:59:00,
2013-06-21 21:04:00,82.6,71.8,29.90,South,180,4.0,4.0,70,0.00,,,0.00,WUHU216HW,2013-06-22 02:04:00,
2013-06-21 21:09:00,82.4,72.1,29.90,South,180,3.6,4.0,71,0.00,,,0.00,WUHU216HW,2013-06-22 02:09:00,
2013-06-21 21:14:00,82.1,72.2,29.90,South,180,3.8,5.1,72,0.00,,,0.00,WUHU216HW,2013-06-22 02:14:00,
2013-06-21 21:19:00,81.9,71.6,29.90,SSW,203,5.6,5.6,71,0.00,,,0.00,WUHU216HW,2013-06-22 02:19:00,
2013-06-21 21:24:00,81.9,71.6,29.90,South,180,5.1,5.6,71,0.00,,,0.00,WUHU216HW,2013-06-22 02:24:00,
2013-06-21 21:29:00,81.7,71.4,29.90,SSW,203,6.0,6.0,71,0.00,,,0.00,WUHU216HW,2013-06-22 02:29:00,
2013-06-21 21:34:00,81.7,71.4,29.90,SSW,203,5.6,6.0,71,0.00,,,0.00,WUHU216HW,2013-06-22 02:34:00,
2013-06-21 21:39:00,81.5,71.3,29.91,South,180,5.1,6.0,71,0.00,,,0.00,WUHU216HW,2013-06-22 02:39:00,
2013-06-21 21:44:00,81.2,71.3,29.91,South,180,4.5,5.1,72,0.00,,,0.00,WUHU216HW,2013-06-22 02:44:00,
2013-06-21 21:49:00,81.0,71.1,29.91,South,180,3.6,5.1,72,0.00,,,0.00,WUHU216HW,2013-06-22 02:49:00,
2013-06-21 21:54:00,80.6,71.2,29.91,SSE,158,3.4,4.5,73,0.00,,,0.00,WUHU216HW,2013-06-22 02:54:00,
2013-06-21 21:59:00,80.3,71.3,29.92,South,180,3.4,3.6,74,0.00,,,0.00,WUHU216HW,2013-06-22 02:59:00,
2013-06-21 22:04:00,80.1,71.5,29.92,South,180,4.0,4.0,75,0.00,,,0.00,WUHU216HW,2013-06-22 03:04:00,
2013-06-21 22:09:00,80.1,71.5,29.92,SSW,203,4.7,4.7,75,0.00,,,0.00,WUHU216HW,2013-06-22 03:09:00,
2013-06-21 22:14:00,80.1,71.5,29.92,SSW,203,5.4,5.4,75,0.00,,,0.00,WUHU216HW,2013-06-22 03:14:00,
2013-06-21 22:19:00,80.1,71.5,29.92,SSW,203,6.9,6.9,75,0.00,,,0.00,WUHU216HW,2013-06-22 03:19:00,
2013-06-21 22:24:00,79.9,71.3,29.93,South,180,4.3,6.9,75,0.00,,,0.00,WUHU216HW,2013-06-22 03:24:00,
2013-06-21 22:29:00,79.7,71.1,29.93,South,180,4.0,4.3,75,0.00,,,0.00,WUHU216HW,2013-06-22 03:29:00,
2013-06-21 22:34:00,79.7,71.1,29.93,South,180,3.4,4.3,75,0.00,,,0.00,WUHU216HW,2013-06-22 03:34:00,
2013-06-21 22:39:00,79.6,70.9,29.93,South,180,2.9,5.4,75,0.00,,,0.00,WUHU216HW,2013-06-22 03:39:00,
2013-06-21 22:44:00,79.4,70.7,29.93,South,180,4.9,5.4,75,0.00,,,0.00,WUHU216HW,2013-06-22 03:44:00,
2013-06-21 22:49:00,79.4,70.7,29.93,SSW,203,3.6,4.9,75,0.00,,,0.00,WUHU216HW,2013-06-22 03:49:00,
2013-06-21 22:54:00,79.2,70.9,29.93,SSW,203,4.7,5.4,76,0.00,,,0.00,WUHU216HW,2013-06-22 03:54:00,
2013-06-21 22:59:00,79.2,70.9,29.92,SSW,203,4.0,5.4,76,0.00,,,0.00,WUHU216HW,2013-06-22 03:59:00,
2013-06-21 23:01:00,79.2,70.9,29.92,SSW,203,5.1,5.4,76,0.00,,,0.00,WUHU216HW,2013-06-22 04:01:00,
2013-06-21 23:06:00,79.2,70.9,29.92,SSW,203,2.5,5.1,76,0.00,,,0.00,WUHU216HW,2013-06-22 04:06:00,
2013-06-21 23:11:00,79.0,71.2,29.93,SSW,203,3.6,5.1,77,0.00,,,0.00,WUHU216HW,2013-06-22 04:11:00,
2013-06-21 23:16:00,78.8,71.0,29.93,SSW,203,2.5,3.6,77,0.00,,,0.00,WUHU216HW,2013-06-22 04:16:00,
2013-06-21 23:21:00,78.7,70.8,29.93,SSW,203,3.1,3.1,77,0.00,,,0.00,WUHU216HW,2013-06-22 04:21:00,
2013-06-21 23:26:00,78.7,71.2,29.93,SSW,203,4.5,4.5,78,0.00,,,0.00,WUHU216HW,2013-06-22 04:26:00,
2013-06-21 23:31:00,78.5,71.0,29.92,SSW,203,3.4,4.5,78,0.00,,,0.00,WUHU216HW,2013-06-22 04:31:00,
2013-06-21 23:36:00,78.5,70.7,29.92,SSW,203,3.8,3.8,77,0.00,,,0.00,WUHU216HW,2013-06-22 04:36:00,
2013-06-21 23:41:00,78.5,70.7,29.93,SSW,203,4.7,4.7,77,0.00,,,0.00,WUHU216HW,2013-06-22 04:41:00,
2013-06-21 23:46:00,78.5,70.7,29.93,SSW,203,6.5,6.9,77,0.00,,,0.00,WUHU216HW,2013-06-22 04:46:00,
2013-06-21 23:51:00,78.7,70.8,29.93,SSW,203,5.6,6.9,77,0.00,,,0.00,WUHU216HW,2013-06-22 04:51:00,
2013-06-21 23:56:00,78.7,70.8,29.93,SSW,203,5.4,6.5,77,0.00,,,0.00,WUHU216HW,2013-06-22 04:56:00,